Starlink 30822

operational
NORAD ID: 58193 Int'l Des: 2023-167 Owner: SPXS Country: US Constellation: starlink
LEOCIRCULAR

Starlink 30822について

説明を読み込み中...

リアルタイム位置

3D地球を読み込み中...

次回通過

高度履歴

Altitude vs Time

uPlot chart will show altitude changes over time

軌道要素

1 58193U 23167U 25303.51791356 .00001026 00000-0 91004-4 0 9992
2 58193 43.0028 133.2780 0001329 264.8552 95.2139 15.02539212111378
Epoch: Oct 30, 2025 • Age: 18 hours

現在のステータス

高度 560.3 km
速度 7.59 km/s
衛星直下点 29.62°N, 34.01°E
打ち上げ日 Oct 30, 2023
運用期間 2 years
タイプ internet

技術仕様

分類 Payload
質量 730.00 kg
乾燥質量 700.00 kg
総質量 730.00 kg
長さ 0.30 m
直径 4.10 m
スパン 29.00 m
形状 Box + pan
製造者 SPXS
バスタイプ Starlink V2M
フェーズステータス In Orbit
所有者/国 SPXS/US

大規模コンステレーション

Loading constellations...